Year,Month,Day,Hour,Minute,Value (Times are PST for temperature in C)
2013,07,20,00,00,20.70
2013,07,20,00,01,20.70
2013,07,20,00,02,20.70
2013,07,20,00,03,20.70
2013,07,20,00,04,20.70
2013,07,20,00,05,20.70
2013,07,20,00,06,20.70
2013,07,20,00,07,20.70
2013,07,20,00,08,20.70
2013,07,20,00,09,20.60
2013,07,20,00,10,20.60
2013,07,20,00,11,20.70
2013,07,20,00,12,20.70
2013,07,20,00,13,20.70
2013,07,20,00,14,20.70
2013,07,20,00,15,20.70
2013,07,20,00,16,20.70
2013,07,20,00,17,20.70
2013,07,20,00,18,20.70
2013,07,20,00,19,20.70
2013,07,20,00,20,20.70
2013,07,20,00,21,20.70
2013,07,20,00,22,20.80
2013,07,20,00,23,20.80
2013,07,20,00,24,20.80
2013,07,20,00,25,20.80
2013,07,20,00,26,20.80
2013,07,20,00,27,20.80
2013,07,20,00,28,20.80
2013,07,20,00,29,20.80
2013,07,20,00,30,20.70
2013,07,20,00,31,20.70
2013,07,20,00,32,20.70
2013,07,20,00,33,20.70
2013,07,20,00,34,20.70
2013,07,20,00,35,20.70
2013,07,20,00,36,20.70
2013,07,20,00,37,20.60
2013,07,20,00,38,20.60
2013,07,20,00,39,20.60
2013,07,20,00,40,20.60
2013,07,20,00,41,20.60
2013,07,20,00,42,20.50
2013,07,20,00,43,20.50
2013,07,20,00,44,20.50
2013,07,20,00,45,20.50
2013,07,20,00,46,20.40
2013,07,20,00,47,20.40
2013,07,20,00,48,20.40
2013,07,20,00,49,20.40
2013,07,20,00,50,20.30
2013,07,20,00,51,20.30
2013,07,20,00,52,20.30
2013,07,20,00,53,20.30
2013,07,20,00,54,20.20
2013,07,20,00,55,20.20
2013,07,20,00,56,20.20
2013,07,20,00,57,20.10
2013,07,20,00,58,20.10
2013,07,20,00,59,20.10
2013,07,20,01,00,20.10
2013,07,20,01,01,20.00
2013,07,20,01,02,20.00
2013,07,20,01,03,19.90
2013,07,20,01,04,19.90
2013,07,20,01,05,19.90
2013,07,20,01,06,19.90
2013,07,20,01,07,19.90
2013,07,20,01,08,19.80
2013,07,20,01,09,19.80
2013,07,20,01,10,19.80
2013,07,20,01,11,19.80
2013,07,20,01,12,19.70
2013,07,20,01,13,19.70
2013,07,20,01,14,19.70
2013,07,20,01,15,19.60
2013,07,20,01,16,19.60
2013,07,20,01,17,19.60
2013,07,20,01,18,19.50
2013,07,20,01,19,19.50
2013,07,20,01,20,19.50
2013,07,20,01,21,19.50
2013,07,20,01,22,19.50
2013,07,20,01,23,19.40
2013,07,20,01,24,19.40
2013,07,20,01,25,19.40
2013,07,20,01,26,19.40
2013,07,20,01,27,19.40
2013,07,20,01,28,19.30
2013,07,20,01,29,19.30
2013,07,20,01,30,19.30
2013,07,20,01,31,19.30
2013,07,20,01,32,19.20
2013,07,20,01,33,19.20
2013,07,20,01,34,19.20
2013,07,20,01,35,19.20
2013,07,20,01,36,19.10
2013,07,20,01,37,19.10
2013,07,20,01,38,19.10
2013,07,20,01,39,19.00
2013,07,20,01,40,19.00
2013,07,20,01,41,18.90
2013,07,20,01,42,18.90
2013,07,20,01,43,18.90
2013,07,20,01,44,18.90
2013,07,20,01,45,18.90
2013,07,20,01,46,18.80
2013,07,20,01,47,18.80
2013,07,20,01,48,18.80
2013,07,20,01,49,18.80
2013,07,20,01,50,18.80
2013,07,20,01,51,18.80
2013,07,20,01,52,18.80
2013,07,20,01,53,18.70
2013,07,20,01,54,18.70
2013,07,20,01,55,18.70
2013,07,20,01,56,18.70
2013,07,20,01,57,18.70
2013,07,20,01,58,18.70
2013,07,20,01,59,18.70
2013,07,20,02,00,18.70
2013,07,20,02,01,18.70
2013,07,20,02,02,18.70
2013,07,20,02,03,18.70
2013,07,20,02,04,18.60
2013,07,20,02,05,18.60
2013,07,20,02,06,18.60
2013,07,20,02,07,18.60
2013,07,20,02,08,18.60
2013,07,20,02,09,18.60
2013,07,20,02,10,18.60
2013,07,20,02,11,18.60
2013,07,20,02,12,18.50
2013,07,20,02,13,18.50
2013,07,20,02,14,18.50
2013,07,20,02,15,18.50
2013,07,20,02,16,18.40
2013,07,20,02,17,18.40
2013,07,20,02,18,18.40
2013,07,20,02,19,18.40
2013,07,20,02,20,18.40
2013,07,20,02,21,18.30
2013,07,20,02,22,18.30
2013,07,20,02,23,18.30
2013,07,20,02,24,18.30
2013,07,20,02,25,18.30
2013,07,20,02,26,18.30
2013,07,20,02,27,18.30
2013,07,20,02,28,18.20
2013,07,20,02,29,18.20
2013,07,20,02,30,18.20
2013,07,20,02,31,18.20
2013,07,20,02,32,18.20
2013,07,20,02,33,18.20
2013,07,20,02,34,18.20
2013,07,20,02,35,18.20
2013,07,20,02,36,18.20
2013,07,20,02,37,18.10
2013,07,20,02,38,18.10
2013,07,20,02,39,18.10
2013,07,20,02,40,18.10
2013,07,20,02,41,18.10
2013,07,20,02,42,18.10
2013,07,20,02,43,18.10
2013,07,20,02,44,18.10
2013,07,20,02,45,18.00
2013,07,20,02,46,18.00
2013,07,20,02,47,18.00
2013,07,20,02,48,18.00
2013,07,20,02,49,17.90
2013,07,20,02,50,17.90
2013,07,20,02,51,17.90
2013,07,20,02,52,17.80
2013,07,20,02,53,17.80
2013,07,20,02,54,17.70
2013,07,20,02,55,17.70
2013,07,20,02,56,17.60
2013,07,20,02,57,17.50
2013,07,20,02,58,17.50
2013,07,20,02,59,17.40
2013,07,20,03,00,17.40
2013,07,20,03,01,17.30
2013,07,20,03,02,17.20
2013,07,20,03,03,17.20
2013,07,20,03,04,17.10
2013,07,20,03,05,17.00
2013,07,20,03,06,16.90
2013,07,20,03,07,16.90
2013,07,20,03,08,16.80
2013,07,20,03,09,16.70
2013,07,20,03,10,16.70
2013,07,20,03,11,16.60
2013,07,20,03,12,16.50
2013,07,20,03,13,16.50
2013,07,20,03,14,16.40
2013,07,20,03,15,16.40
2013,07,20,03,16,16.30
2013,07,20,03,17,16.30
2013,07,20,03,18,16.20
2013,07,20,03,19,16.20
2013,07,20,03,20,16.10
2013,07,20,03,21,16.10
2013,07,20,03,22,16.00
2013,07,20,03,23,16.00
2013,07,20,03,24,15.90
2013,07,20,03,25,15.80
2013,07,20,03,26,15.80
2013,07,20,03,27,15.80
2013,07,20,03,28,15.70
2013,07,20,03,29,15.70
2013,07,20,03,30,15.70
2013,07,20,03,31,15.60
2013,07,20,03,32,15.60
2013,07,20,03,33,15.60
2013,07,20,03,34,15.50
2013,07,20,03,35,15.50
2013,07,20,03,36,15.50
2013,07,20,03,37,15.40
2013,07,20,03,38,15.40
2013,07,20,03,39,15.40
2013,07,20,03,40,15.30
2013,07,20,03,41,15.40
2013,07,20,03,42,15.40
2013,07,20,03,43,15.40
2013,07,20,03,44,15.40
2013,07,20,03,45,15.40
2013,07,20,03,46,15.40
2013,07,20,03,47,15.40
2013,07,20,03,48,15.30
2013,07,20,03,49,15.30
2013,07,20,03,50,15.30
2013,07,20,03,51,15.30
2013,07,20,03,52,15.30
2013,07,20,03,53,15.30
2013,07,20,03,54,15.30
2013,07,20,03,55,15.30
2013,07,20,03,56,15.30
2013,07,20,03,57,15.20
2013,07,20,03,58,15.20
2013,07,20,03,59,15.20
2013,07,20,04,00,15.10
2013,07,20,04,01,15.10
2013,07,20,04,02,15.10
2013,07,20,04,03,15.10
2013,07,20,04,04,15.20
2013,07,20,04,05,15.20
2013,07,20,04,06,15.20
2013,07,20,04,07,15.20
2013,07,20,04,08,15.10
2013,07,20,04,09,15.10
2013,07,20,04,10,15.10
2013,07,20,04,11,15.00
2013,07,20,04,12,15.00
2013,07,20,04,13,14.90
2013,07,20,04,14,14.90
2013,07,20,04,15,14.90
2013,07,20,04,16,14.90
2013,07,20,04,17,14.90
2013,07,20,04,18,14.80
2013,07,20,04,19,14.80
2013,07,20,04,20,14.80
2013,07,20,04,21,14.80
2013,07,20,04,22,14.80
2013,07,20,04,23,14.80
2013,07,20,04,24,14.70
2013,07,20,04,25,14.70
2013,07,20,04,26,14.70
2013,07,20,04,27,14.70
2013,07,20,04,28,14.60
2013,07,20,04,29,14.60
2013,07,20,04,30,14.60
2013,07,20,04,31,14.60
2013,07,20,04,32,14.60
2013,07,20,04,33,14.60
2013,07,20,04,34,14.60
2013,07,20,04,35,14.50
2013,07,20,04,36,14.50
2013,07,20,04,37,14.50
2013,07,20,04,38,14.50
2013,07,20,04,39,14.50
2013,07,20,04,40,14.60
2013,07,20,04,41,14.60
2013,07,20,04,42,14.60
2013,07,20,04,43,14.70
2013,07,20,04,44,14.70
2013,07,20,04,45,14.60
2013,07,20,04,46,14.70
2013,07,20,04,47,14.70
2013,07,20,04,48,14.70
2013,07,20,04,49,14.70
2013,07,20,04,50,14.70
2013,07,20,04,51,14.80
2013,07,20,04,52,14.90
2013,07,20,04,53,15.00
2013,07,20,04,54,15.10
2013,07,20,04,55,15.20
2013,07,20,04,56,15.20
2013,07,20,04,57,15.30
2013,07,20,04,58,15.30
2013,07,20,04,59,15.40
2013,07,20,05,00,15.50
2013,07,20,05,01,15.50
2013,07,20,05,02,15.60
2013,07,20,05,03,15.60
2013,07,20,05,04,15.60
2013,07,20,05,05,15.70
2013,07,20,05,06,15.70
2013,07,20,05,07,15.70
2013,07,20,05,08,15.80
2013,07,20,05,09,15.80
2013,07,20,05,10,15.80
2013,07,20,05,11,15.90
2013,07,20,05,12,15.90
2013,07,20,05,13,15.90
2013,07,20,05,14,15.90
2013,07,20,05,15,15.90
2013,07,20,05,16,15.90
2013,07,20,05,17,15.90
2013,07,20,05,18,15.90
2013,07,20,05,19,15.90
2013,07,20,05,20,15.90
2013,07,20,05,21,15.90
2013,07,20,05,22,15.90
2013,07,20,05,23,15.90
2013,07,20,05,24,15.80
2013,07,20,05,25,15.80
2013,07,20,05,26,15.80
2013,07,20,05,27,15.80
2013,07,20,05,28,15.80
2013,07,20,05,29,15.80
2013,07,20,05,30,15.80
2013,07,20,05,31,15.70
2013,07,20,05,32,15.70
2013,07,20,05,33,15.70
2013,07,20,05,34,15.70
2013,07,20,05,35,15.60
2013,07,20,05,36,15.60
2013,07,20,05,37,15.60
2013,07,20,05,38,15.60
2013,07,20,05,39,15.60
2013,07,20,05,40,15.60
2013,07,20,05,41,15.60
2013,07,20,05,42,15.60
2013,07,20,05,43,15.70
2013,07,20,05,44,15.70
2013,07,20,05,45,15.70
2013,07,20,05,46,15.70
2013,07,20,05,47,15.70
2013,07,20,05,48,15.80
2013,07,20,05,49,15.80
2013,07,20,05,50,15.80
2013,07,20,05,51,15.80
2013,07,20,05,52,15.80
2013,07,20,05,53,15.80
2013,07,20,05,54,15.80
2013,07,20,05,55,15.80
2013,07,20,05,56,15.70
2013,07,20,05,57,15.60
2013,07,20,05,58,15.60
2013,07,20,05,59,15.60
2013,07,20,06,00,15.60
2013,07,20,06,01,15.60
2013,07,20,06,02,15.50
2013,07,20,06,03,15.50
2013,07,20,06,04,15.60
2013,07,20,06,05,15.50
2013,07,20,06,06,15.60
2013,07,20,06,07,15.60
2013,07,20,06,08,15.60
2013,07,20,06,09,15.60
2013,07,20,06,10,15.70
2013,07,20,06,11,15.70
2013,07,20,06,12,15.60
2013,07,20,06,13,15.60
2013,07,20,06,14,15.60
2013,07,20,06,15,15.50
2013,07,20,06,16,15.50
2013,07,20,06,17,15.50
2013,07,20,06,18,15.50
2013,07,20,06,19,15.40
2013,07,20,06,20,15.40
2013,07,20,06,21,15.40
2013,07,20,06,22,15.40
2013,07,20,06,23,15.40
2013,07,20,06,24,15.40
2013,07,20,06,25,15.40
2013,07,20,06,26,15.30
2013,07,20,06,27,15.30
2013,07,20,06,28,15.30
2013,07,20,06,29,15.30
2013,07,20,06,30,15.30
2013,07,20,06,31,15.30
2013,07,20,06,32,15.30
2013,07,20,06,33,15.30
2013,07,20,06,34,15.30
2013,07,20,06,35,15.30
2013,07,20,06,36,15.30
2013,07,20,06,37,15.30
2013,07,20,06,38,15.30
2013,07,20,06,39,15.30
2013,07,20,06,40,15.30
2013,07,20,06,41,15.30
2013,07,20,06,42,15.40
2013,07,20,06,43,15.40
2013,07,20,06,44,15.40
2013,07,20,06,45,15.40
2013,07,20,06,46,15.50
2013,07,20,06,47,15.50
2013,07,20,06,48,15.50
2013,07,20,06,49,15.60
2013,07,20,06,50,15.60
2013,07,20,06,51,15.70
2013,07,20,06,52,15.70
2013,07,20,06,53,15.70
2013,07,20,06,54,15.80
2013,07,20,06,55,15.80
2013,07,20,06,56,15.90
2013,07,20,06,57,15.90
2013,07,20,06,58,16.00
2013,07,20,06,59,16.00
2013,07,20,07,00,16.10
2013,07,20,07,01,16.10
2013,07,20,07,02,16.10
2013,07,20,07,03,16.20
2013,07,20,07,04,16.20
2013,07,20,07,05,16.20
2013,07,20,07,06,16.30
2013,07,20,07,07,16.30
2013,07,20,07,08,16.30
2013,07,20,07,09,16.30
2013,07,20,07,10,16.40
2013,07,20,07,11,16.40
2013,07,20,07,12,16.40
2013,07,20,07,13,16.50
2013,07,20,07,14,16.50
2013,07,20,07,15,16.60
2013,07,20,07,16,16.60
2013,07,20,07,17,16.70
2013,07,20,07,18,16.80
2013,07,20,07,19,16.80
2013,07,20,07,20,16.90
2013,07,20,07,21,16.90
2013,07,20,07,22,17.00
2013,07,20,07,23,17.10
2013,07,20,07,24,17.10
2013,07,20,07,25,17.10
2013,07,20,07,26,17.20
2013,07,20,07,27,17.20
2013,07,20,07,28,17.20
2013,07,20,07,29,17.20
2013,07,20,07,30,17.20
2013,07,20,07,31,17.30
2013,07,20,07,32,17.30
2013,07,20,07,33,17.30
2013,07,20,07,34,17.30
2013,07,20,07,35,17.30
2013,07,20,07,36,17.30
2013,07,20,07,37,17.40
2013,07,20,07,38,17.40
2013,07,20,07,39,17.50
2013,07,20,07,40,17.50
2013,07,20,07,41,17.50
2013,07,20,07,42,17.50
2013,07,20,07,43,17.50
2013,07,20,07,44,17.60
2013,07,20,07,45,17.60
2013,07,20,07,46,17.60
2013,07,20,07,47,17.50
2013,07,20,07,48,17.40
2013,07,20,07,49,17.40
2013,07,20,07,50,17.40
2013,07,20,07,51,17.40
2013,07,20,07,52,17.40
2013,07,20,07,53,17.40
2013,07,20,07,54,17.40
2013,07,20,07,55,17.40
2013,07,20,07,56,17.40
2013,07,20,07,57,17.40
2013,07,20,07,58,17.30
2013,07,20,07,59,17.30
2013,07,20,08,00,17.30
2013,07,20,08,01,17.30
2013,07,20,08,02,17.30
2013,07,20,08,03,17.30
2013,07,20,08,04,17.20
2013,07,20,08,05,17.20
2013,07,20,08,06,17.20
2013,07,20,08,07,17.20
2013,07,20,08,08,17.30
2013,07,20,08,09,17.30
2013,07,20,08,10,17.30
2013,07,20,08,11,17.30
2013,07,20,08,12,17.30
2013,07,20,08,13,17.20
2013,07,20,08,14,17.20
2013,07,20,08,15,17.20
2013,07,20,08,16,17.20
2013,07,20,08,17,17.10
2013,07,20,08,18,17.10
2013,07,20,08,19,17.10
2013,07,20,08,20,17.10
2013,07,20,08,21,17.10
2013,07,20,08,22,17.10
2013,07,20,08,23,17.00
2013,07,20,08,24,17.00
2013,07,20,08,25,16.90
2013,07,20,08,26,16.90
2013,07,20,08,27,17.00
2013,07,20,08,28,17.00
2013,07,20,08,29,17.10
2013,07,20,08,30,17.10
2013,07,20,08,31,17.10
2013,07,20,08,32,17.10
2013,07,20,08,33,17.10
2013,07,20,08,34,17.00
2013,07,20,08,35,17.10
2013,07,20,08,36,17.10
2013,07,20,08,37,17.10
2013,07,20,08,38,17.10
2013,07,20,08,39,17.20
2013,07,20,08,40,17.10
2013,07,20,08,41,17.20
2013,07,20,08,42,17.20
2013,07,20,08,43,17.20
2013,07,20,08,44,17.20
2013,07,20,08,45,17.10
2013,07,20,08,46,17.10
2013,07,20,08,47,17.20
2013,07,20,08,48,17.20
2013,07,20,08,49,17.30
2013,07,20,08,50,17.30
2013,07,20,08,51,17.30
2013,07,20,08,52,17.30
2013,07,20,08,53,17.30
2013,07,20,08,54,17.30
2013,07,20,08,55,17.30
2013,07,20,08,56,17.20
2013,07,20,08,57,17.20
2013,07,20,08,58,17.20
2013,07,20,08,59,17.20
2013,07,20,09,00,17.20
2013,07,20,09,01,17.30
2013,07,20,09,02,17.20
2013,07,20,09,03,17.20
2013,07,20,09,04,17.20
2013,07,20,09,05,17.10
2013,07,20,09,06,17.10
2013,07,20,09,07,17.10
2013,07,20,09,08,17.10
2013,07,20,09,09,17.10
2013,07,20,09,10,17.10
2013,07,20,09,11,17.10
2013,07,20,09,12,17.10
2013,07,20,09,13,17.10
2013,07,20,09,14,17.20
2013,07,20,09,15,17.20
2013,07,20,09,16,17.20
2013,07,20,09,17,17.20
2013,07,20,09,18,17.20
2013,07,20,09,19,17.20
2013,07,20,09,20,17.20
2013,07,20,09,21,17.20
2013,07,20,09,22,17.30
2013,07,20,09,23,17.30
2013,07,20,09,24,17.30
2013,07,20,09,25,17.30
2013,07,20,09,26,17.30
2013,07,20,09,27,17.30
2013,07,20,09,28,17.30
2013,07,20,09,29,17.40
2013,07,20,09,30,17.40
2013,07,20,09,31,17.40
2013,07,20,09,32,17.40
2013,07,20,09,33,17.40
2013,07,20,09,34,17.40
2013,07,20,09,35,17.40
2013,07,20,09,36,17.40
2013,07,20,09,37,17.40
2013,07,20,09,38,17.30
2013,07,20,09,39,17.30
2013,07,20,09,40,17.20
2013,07,20,09,41,17.20
2013,07,20,09,42,17.20
2013,07,20,09,43,17.20
2013,07,20,09,44,17.20
2013,07,20,09,45,17.20
2013,07,20,09,46,17.20
2013,07,20,09,47,17.20
2013,07,20,09,48,17.20
2013,07,20,09,49,17.20
2013,07,20,09,50,17.20
2013,07,20,09,51,17.20
2013,07,20,09,52,17.20
2013,07,20,09,53,17.30
2013,07,20,09,54,17.30
2013,07,20,09,55,17.30
2013,07,20,09,56,17.20
2013,07,20,09,57,17.20
2013,07,20,09,58,17.20
2013,07,20,09,59,17.10
2013,07,20,10,00,17.10
2013,07,20,10,01,17.10
2013,07,20,10,02,17.10
2013,07,20,10,03,17.10
2013,07,20,10,04,17.10
2013,07,20,10,05,17.20
2013,07,20,10,06,17.20
2013,07,20,10,07,17.20
2013,07,20,10,08,17.30
2013,07,20,10,09,17.30
2013,07,20,10,10,17.30
2013,07,20,10,11,17.30
2013,07,20,10,12,17.20
2013,07,20,10,13,17.20
2013,07,20,10,14,17.20
2013,07,20,10,15,17.20
2013,07,20,10,16,17.20
2013,07,20,10,17,17.20
2013,07,20,10,18,17.20
2013,07,20,10,19,17.20
2013,07,20,10,20,17.30
2013,07,20,10,21,17.30
2013,07,20,10,22,17.30
2013,07,20,10,23,17.30
2013,07,20,10,24,17.30
2013,07,20,10,25,17.30
2013,07,20,10,26,17.30
2013,07,20,10,27,17.30
2013,07,20,10,28,17.30
2013,07,20,10,29,17.30
2013,07,20,10,30,17.30
2013,07,20,10,31,17.20
2013,07,20,10,32,17.20
2013,07,20,10,33,17.20
2013,07,20,10,34,17.20
2013,07,20,10,35,17.20
2013,07,20,10,36,17.20
2013,07,20,10,37,17.20
2013,07,20,10,38,17.30
2013,07,20,10,39,17.40
2013,07,20,10,40,17.40
2013,07,20,10,41,17.50
2013,07,20,10,42,17.50
2013,07,20,10,43,17.60
2013,07,20,10,44,17.60
2013,07,20,10,45,17.60
2013,07,20,10,46,17.70
2013,07,20,10,47,17.70
2013,07,20,10,48,17.70
2013,07,20,10,49,17.70
2013,07,20,10,50,17.70
2013,07,20,10,51,17.70
2013,07,20,10,52,17.80
2013,07,20,10,53,17.80
2013,07,20,10,54,17.80
2013,07,20,10,55,17.90
2013,07,20,10,56,17.90
2013,07,20,10,57,17.90
2013,07,20,10,58,17.80
2013,07,20,10,59,17.80
2013,07,20,11,00,17.70
2013,07,20,11,01,17.80
2013,07,20,11,02,17.80
2013,07,20,11,03,17.80
2013,07,20,11,04,17.80
2013,07,20,11,05,17.70
2013,07,20,11,06,17.70
2013,07,20,11,07,17.70
2013,07,20,11,08,17.70
2013,07,20,11,09,17.70
2013,07,20,11,10,17.70
2013,07,20,11,11,17.80
2013,07,20,11,12,17.80
2013,07,20,11,13,17.90
2013,07,20,11,14,17.90
2013,07,20,11,15,17.90
2013,07,20,11,16,17.90
2013,07,20,11,17,18.00
2013,07,20,11,18,18.10
2013,07,20,11,19,18.10
2013,07,20,11,20,18.10
2013,07,20,11,21,18.10
2013,07,20,11,22,18.10
2013,07,20,11,23,18.10
2013,07,20,11,24,18.10
2013,07,20,11,25,18.00
2013,07,20,11,26,18.00
2013,07,20,11,27,18.00
2013,07,20,11,28,18.00
2013,07,20,11,29,18.00
2013,07,20,11,30,17.90
2013,07,20,11,31,17.80
2013,07,20,11,32,17.80
2013,07,20,11,33,17.80
2013,07,20,11,34,17.70
2013,07,20,11,35,17.70
2013,07,20,11,36,17.70
2013,07,20,11,37,17.70
2013,07,20,11,38,17.70
2013,07,20,11,39,17.70
2013,07,20,11,40,17.80
2013,07,20,11,41,17.80
2013,07,20,11,42,17.90
2013,07,20,11,43,18.00
2013,07,20,11,44,18.10
2013,07,20,11,45,18.20
2013,07,20,11,46,18.10
2013,07,20,11,47,18.10
2013,07,20,11,48,18.10
2013,07,20,11,49,18.00
2013,07,20,11,50,18.00
2013,07,20,11,51,18.00
2013,07,20,11,52,17.90
2013,07,20,11,53,17.90
2013,07,20,11,54,17.90
2013,07,20,11,55,17.90
2013,07,20,11,56,18.00
2013,07,20,11,57,18.00
2013,07,20,11,58,18.10
2013,07,20,11,59,18.20
2013,07,20,12,00,18.20
2013,07,20,12,01,18.20
2013,07,20,12,02,18.20
2013,07,20,12,03,18.20
2013,07,20,12,04,18.10
2013,07,20,12,05,18.10
2013,07,20,12,06,18.10
2013,07,20,12,07,18.10
2013,07,20,12,08,18.10
2013,07,20,12,09,18.10
2013,07,20,12,10,18.00
2013,07,20,12,11,18.00
2013,07,20,12,12,17.90
2013,07,20,12,13,18.00
2013,07,20,12,14,18.10
2013,07,20,12,15,18.20
2013,07,20,12,16,18.30
2013,07,20,12,17,18.30
2013,07,20,12,18,18.40
2013,07,20,12,19,18.40
2013,07,20,12,20,18.40
2013,07,20,12,21,18.40
2013,07,20,12,22,18.30
2013,07,20,12,23,18.40
2013,07,20,12,24,18.40
2013,07,20,12,25,18.30
2013,07,20,12,26,18.30
2013,07,20,12,27,18.40
2013,07,20,12,28,18.50
2013,07,20,12,29,18.50
2013,07,20,12,30,18.40
2013,07,20,12,31,18.40
2013,07,20,12,32,18.50
2013,07,20,12,33,18.50
2013,07,20,12,34,18.50
2013,07,20,12,35,18.50
2013,07,20,12,36,18.50
2013,07,20,12,37,18.40
2013,07,20,12,38,18.40
2013,07,20,12,39,18.40
2013,07,20,12,40,18.40
2013,07,20,12,41,18.40
2013,07,20,12,42,18.40
2013,07,20,12,43,18.40
2013,07,20,12,44,18.40
2013,07,20,12,45,18.40
2013,07,20,12,46,18.40
2013,07,20,12,47,18.40
2013,07,20,12,48,18.40
2013,07,20,12,49,18.40
2013,07,20,12,50,18.30
2013,07,20,12,51,18.40
2013,07,20,12,52,18.40
2013,07,20,12,53,18.50
2013,07,20,12,54,18.60
2013,07,20,12,55,18.50
2013,07,20,12,56,18.40
2013,07,20,12,57,18.40
2013,07,20,12,58,18.40
2013,07,20,12,59,18.50
2013,07,20,13,00,18.50
2013,07,20,13,01,18.50
2013,07,20,13,02,18.50
2013,07,20,13,03,18.60
2013,07,20,13,04,18.60
2013,07,20,13,05,18.50
2013,07,20,13,06,18.50
2013,07,20,13,07,18.60
2013,07,20,13,08,18.60
2013,07,20,13,09,18.60
2013,07,20,13,10,18.50
2013,07,20,13,11,18.50
2013,07,20,13,12,18.50
2013,07,20,13,13,18.40
2013,07,20,13,14,18.30
2013,07,20,13,15,18.30
2013,07,20,13,16,18.30
2013,07,20,13,17,18.40
2013,07,20,13,18,18.50
2013,07,20,13,19,18.60
2013,07,20,13,20,18.60
2013,07,20,13,21,18.60
2013,07,20,13,22,18.60
2013,07,20,13,23,18.70
2013,07,20,13,24,18.70
2013,07,20,13,25,18.80
2013,07,20,13,26,18.80
2013,07,20,13,27,18.90
2013,07,20,13,28,18.90
2013,07,20,13,29,18.90
2013,07,20,13,30,18.90
2013,07,20,13,31,18.90
2013,07,20,13,32,18.90
2013,07,20,13,33,18.90
2013,07,20,13,34,18.90
2013,07,20,13,35,18.90
2013,07,20,13,36,18.90
2013,07,20,13,37,19.00
2013,07,20,13,38,19.00
2013,07,20,13,39,19.10
2013,07,20,13,40,19.10
2013,07,20,13,41,19.20
2013,07,20,13,42,19.30
2013,07,20,13,43,19.30
2013,07,20,13,44,19.40
2013,07,20,13,45,19.50
2013,07,20,13,46,19.50
2013,07,20,13,47,19.60
2013,07,20,13,48,19.60
2013,07,20,13,49,19.60
2013,07,20,13,50,19.60
2013,07,20,13,51,19.60
2013,07,20,13,52,19.60
2013,07,20,13,53,19.60
2013,07,20,13,54,19.50
2013,07,20,13,55,19.50
2013,07,20,13,56,19.50
2013,07,20,13,57,19.60
2013,07,20,13,58,19.60
2013,07,20,13,59,19.60
2013,07,20,14,00,19.60
2013,07,20,14,01,19.70
2013,07,20,14,02,19.70
2013,07,20,14,03,19.80
2013,07,20,14,04,19.70
2013,07,20,14,05,19.70
2013,07,20,14,06,19.70
2013,07,20,14,07,19.70
2013,07,20,14,08,19.70
2013,07,20,14,09,19.70
2013,07,20,14,10,19.80
2013,07,20,14,11,19.80
2013,07,20,14,12,19.80
2013,07,20,14,13,19.80
2013,07,20,14,14,19.80
2013,07,20,14,15,19.80
2013,07,20,14,16,19.90
2013,07,20,14,17,19.90
2013,07,20,14,18,20.00
2013,07,20,14,19,20.00
2013,07,20,14,20,20.00
2013,07,20,14,21,20.10
2013,07,20,14,22,20.10
2013,07,20,14,23,20.20
2013,07,20,14,24,20.30
2013,07,20,14,25,20.30
2013,07,20,14,26,20.40
2013,07,20,14,27,20.30
2013,07,20,14,28,20.30
2013,07,20,14,29,20.20
2013,07,20,14,30,20.20
2013,07,20,14,31,20.10
2013,07,20,14,32,20.10
2013,07,20,14,33,20.00
2013,07,20,14,34,20.00
2013,07,20,14,35,20.10
2013,07,20,14,36,20.10
2013,07,20,14,37,20.10
2013,07,20,14,38,20.10
2013,07,20,14,39,20.10
2013,07,20,14,40,20.20
2013,07,20,14,41,20.20
2013,07,20,14,42,20.20
2013,07,20,14,43,20.10
2013,07,20,14,44,20.10
2013,07,20,14,45,20.10
2013,07,20,14,46,20.20
2013,07,20,14,47,20.30
2013,07,20,14,48,20.30
2013,07,20,14,49,20.30
2013,07,20,14,50,20.30
2013,07,20,14,51,20.30
2013,07,20,14,52,20.30
2013,07,20,14,53,20.30
2013,07,20,14,54,20.30
2013,07,20,14,55,20.30
2013,07,20,14,56,20.30
2013,07,20,14,57,20.30
2013,07,20,14,58,20.30
2013,07,20,14,59,20.30
2013,07,20,15,00,20.40
2013,07,20,15,01,20.50
2013,07,20,15,02,20.50
2013,07,20,15,03,20.60
2013,07,20,15,04,20.60
2013,07,20,15,05,20.50
2013,07,20,15,06,20.50
2013,07,20,15,07,20.50
2013,07,20,15,08,20.40
2013,07,20,15,09,20.40
2013,07,20,15,10,20.40
2013,07,20,15,11,20.40
2013,07,20,15,12,20.40
2013,07,20,15,13,20.40
2013,07,20,15,14,20.40
2013,07,20,15,15,20.40
2013,07,20,15,16,20.40
2013,07,20,15,17,20.40
2013,07,20,15,18,20.40
2013,07,20,15,19,20.40
2013,07,20,15,20,20.40
2013,07,20,15,21,20.50
2013,07,20,15,22,20.60
2013,07,20,15,23,20.70
2013,07,20,15,24,20.70
2013,07,20,15,25,20.70
2013,07,20,15,26,20.60
2013,07,20,15,27,20.50
2013,07,20,15,28,20.50
2013,07,20,15,29,20.40
2013,07,20,15,30,20.40
2013,07,20,15,31,20.40
2013,07,20,15,32,20.50
2013,07,20,15,33,20.60
2013,07,20,15,34,20.60
2013,07,20,15,35,20.70
2013,07,20,15,36,20.70
2013,07,20,15,37,20.60
2013,07,20,15,38,20.60
2013,07,20,15,39,20.60
2013,07,20,15,40,20.60
2013,07,20,15,41,20.50
2013,07,20,15,42,20.50
2013,07,20,15,43,20.40
2013,07,20,15,44,20.40
2013,07,20,15,45,20.50
2013,07,20,15,46,20.50
2013,07,20,15,47,20.50
2013,07,20,15,48,20.50
2013,07,20,15,49,20.60
2013,07,20,15,50,20.60
2013,07,20,15,51,20.60
2013,07,20,15,52,20.70
2013,07,20,15,53,20.70
2013,07,20,15,54,20.70
2013,07,20,15,55,20.60
2013,07,20,15,56,20.70
2013,07,20,15,57,20.60
2013,07,20,15,58,20.60
2013,07,20,15,59,20.60
2013,07,20,16,00,20.60
2013,07,20,16,01,20.60
2013,07,20,16,02,20.70
2013,07,20,16,03,20.70
2013,07,20,16,04,20.70
2013,07,20,16,05,20.60
2013,07,20,16,06,20.60
2013,07,20,16,07,20.60
2013,07,20,16,08,20.60
2013,07,20,16,09,20.60
2013,07,20,16,10,20.60
2013,07,20,16,11,20.60
2013,07,20,16,12,20.60
2013,07,20,16,13,20.60
2013,07,20,16,14,20.60
2013,07,20,16,15,20.70
2013,07,20,16,16,20.70
2013,07,20,16,17,20.80
2013,07,20,16,18,20.80
2013,07,20,16,19,20.80
2013,07,20,16,20,20.80
2013,07,20,16,21,20.80
2013,07,20,16,22,20.80
2013,07,20,16,23,20.80
2013,07,20,16,24,20.90
2013,07,20,16,25,20.90
2013,07,20,16,26,20.90
2013,07,20,16,27,20.80
2013,07,20,16,28,20.80
2013,07,20,16,29,20.80
2013,07,20,16,30,20.80
2013,07,20,16,31,20.80
2013,07,20,16,32,20.70
2013,07,20,16,33,20.70
2013,07,20,16,34,20.60
2013,07,20,16,35,20.60
2013,07,20,16,36,20.60
2013,07,20,16,37,20.60
2013,07,20,16,38,20.60
2013,07,20,16,39,20.60
2013,07,20,16,40,20.60
2013,07,20,16,41,20.60
2013,07,20,16,42,20.60
2013,07,20,16,43,20.60
2013,07,20,16,44,20.60
2013,07,20,16,45,20.60
2013,07,20,16,46,20.60
2013,07,20,16,47,20.70
2013,07,20,16,48,20.70
2013,07,20,16,49,20.70
2013,07,20,16,50,20.80
2013,07,20,16,51,20.80
2013,07,20,16,52,20.80
2013,07,20,16,53,20.80
2013,07,20,16,54,20.80
2013,07,20,16,55,20.80
2013,07,20,16,56,20.70
2013,07,20,16,57,20.70
2013,07,20,16,58,20.60
2013,07,20,16,59,20.70
2013,07,20,17,00,20.70
2013,07,20,17,01,20.70
2013,07,20,17,02,20.70
2013,07,20,17,03,20.60
2013,07,20,17,04,20.60
2013,07,20,17,05,20.50
2013,07,20,17,06,20.50
2013,07,20,17,07,20.50
2013,07,20,17,08,20.50
2013,07,20,17,09,20.50
2013,07,20,17,10,20.50
2013,07,20,17,11,20.60
2013,07,20,17,12,20.60
2013,07,20,17,13,20.60
2013,07,20,17,14,20.60
2013,07,20,17,15,20.50
2013,07,20,17,16,20.60
2013,07,20,17,17,20.60
2013,07,20,17,18,20.50
2013,07,20,17,19,20.50